Orbital Elements at Epoch 2459000.5 (2020-May-31.0) TDB
Reference: JPL 23 (heliocentric ecliptic J2000)
Element | Value | Uncertainty (1-sigma) | Units |
e | .1199112714202833 | 3.2103e-08 | |
a | 2.478634741895617 | 1.2365e-08 | au |
q | 2.181418498608428 | 8.3201e-08 | au |
i | 6.672469386189017 | 4.0609e-06 | deg |
node | 234.5353570073329 | 3.085e-05 | deg |
peri | 64.15394980191623 | 3.6855e-05 | deg |
M | 237.0070386708696 | 2.212e-05 | deg |
tp | 2459487.461900175839 (2021-Sep-29.96190018) | 8.9645e-05 | TDB |
period | 1425.335906777466 3.90 | 1.0665e-05 2.92e-08 | d yr |
n | .2525720416416941 | 1.8899e-09 | deg/d |
Q | 2.775850985182806 | 1.3847e-08 | au |
|
| | Orbit Determination Parameters
Additional Information
|